Overview Statistics Trail Chart Weather Telemetry Raw packets
 

This is the latest recevied weather packets stored in our database for station/object WE1C. If no packets are shown the sender has not sent any weather packets the latest 10 day(s).

<< 8 9 10 11 12 13 14 >>
Time Temp. Humidity Pressure Rain* Wind** Luminosity Snow
1788554478 23.89° C 71% 1037.9 hPa 0 mm - 132 W/m² -
1788554174 23.33° C 69% 1038 hPa 0 mm - 138 W/m² -
1788553871 23.33° C 73% 1037.9 hPa 0 mm - 131 W/m² -
1788553566 23.89° C 68% 1038 hPa 0 mm - 120 W/m² -
1788553263 23.89° C 72% 1038 hPa 0 mm - 94 W/m² -
1788552962 24.44° C 66% 1038.1 hPa 0 mm - 70 W/m² -
1788552657 24.44° C 67% 1038.1 hPa 0 mm - 80 W/m² -
1788552356 24.44° C 69% 1038 hPa 0 mm - 77 W/m² -
1788552052 24.44° C 67% 1038 hPa 0 mm - 99 W/m² -
1788551750 25° C 62% 1038 hPa 0 mm - 84 W/m² -
1788551450 25° C 60% 1038.1 hPa 0 mm - 97 W/m² -
1788551144 25.56° C 61% 1038 hPa 0 mm - 93 W/m² -
1788550839 26.67° C 61% 1037.8 hPa 0 mm - 196 W/m² -
1788550534 26.11° C 58% 1037.9 hPa 0 mm - 519 W/m² -
1788550231 26.67° C 66% 1038 hPa 0 mm - 536 W/m² -
1788549929 26.11° C 63% 1037.9 hPa 0 mm - 563 W/m² -
1788549626 26.11° C 64% 1037.8 hPa 0 mm - 560 W/m² -
1788549322 25.56° C 60% 1038.2 hPa 0 mm - 580 W/m² -
1788549019 26.11° C 62% 1037.8 hPa 0 mm - 573 W/m² -
1788548714 26.11° C 64% 1037.7 hPa 0 mm - 562 W/m² -
1788548410 25.56° C 63% 1038 hPa 0 mm - 437 W/m² -
1788548107 26.67° C 61% 1037.9 hPa 0 mm - 456 W/m² -
1788547801 26.67° C 62% 1038.2 hPa 0 mm - 599 W/m² -
1788547501 27.22° C 58% 1038.3 hPa 0 mm - 714 W/m² -
1788547196 26.67° C 59% 1038.4 hPa 0 mm - 667 W/m² -

* Rain latest hour (hover to see other rain measurements)
** Current wind speed in m/s (hover to see current wind gust speed)